THOR ABLESTAR DEB, 410

Orbit data source: Space-Track

THOR ABLESTAR DEB, 410 is space debris in LEO originally from a launch on Thu, 29 Jun 1961 UTC launched from the Air Force Eastern Test Range (AFETR). Debris objects in space refer to the collection of defunct objects orbiting the Earth. Examples of debris include non-operational satellites, rocket bodies, and fragments generated from explosions, collisions, or faulty payload assembly.

Loading next visibility...
Identifier
410, 1961-015EK
Orbit
LEO
Last TLE update
11 hours ago
Origin
Manufacturer
Unknown
Mission
Spacecraft
Bus & Motor
Unknown
Mass
Unknown
Launch date (UTC)
1961-06-29 (64 years ago)
Launch vehicle
Unknown
Launch site
Air Force Eastern Test Range (AFETR)
Object type
Payload
Rocket body
Debris
Shape & HBR
Unknown
Radar Cross Section
Medium (>0.1 m² and <1 m²)

Expand to show TLE details & history

TLE from 11 hours ago
0 THOR ABLESTAR DEB
1 00410U 61015EK  25128.88173821  .00000046  00000-0  12304-3 0  9997
2 00410  66.6926 286.6659 0021706 273.9422 161.7872 13.76524332204429
Epoch: 2025-05-08T21:09Z
Definitive object data (Epoch: 2025-05-08T21:09:42.181Z)
Latitude
63.03079°
Longitude
159.67516°
Altitude
1,001.395 km
Speed
7.35 km/s
True Right ascension
22h 56m 11s
True Declination
62° 53' 46"
Sunlit
Object was in daylight at TLE epoch
Visualization TLE readout
Latitude
-64.50791°
Longitude
37.14299°
Altitude
984.174 km
Speed
7.367 km/s
Apparent Right ascension
07h 12m 17s
Apparent Declination
-75° 57' 35"
Sunlit
Object is in full shadow
Visualization observer readout
Local Sidereal Time
16:46:16
Azimuth
193.125° SSW
Elevation
-50.54°
Doppler factor
1
Orbital elements
Apogee altitude
990.617 km
Perigee altitude
958.697 km
Semi-major axis
7,352.794 km
Eccentricity
0.0021706
Inclination
66.6926°
RAAN
286.6659°
Arg. of periapsis
273.9422°
True anomaly
161.86474°
Mean anomaly
161.7872°
Eccentric anomaly
161.82599°
Mean motion
3.44243 °/min
BSTAR
0.00012304
Orbital period
104.58 mins
Loading maneuver chart data...
Loading SW <> Apogee altitude chart data...

THOR ABLESTAR DEB Visibility forecast

Observer location: undefined°, undefined°

Span
Click to sort rows by Start time (UTC) header in descending order
Start Az.
Max El. time (UTC)
Max El. Az.
Max El.
End time (UTC)
End Az.
9 mins2025-05-09 10:51:05.198Z155.189° SSE2025-05-09 10:56:05.198Z102.396° ESE21.667°2025-05-09 11:00:05.198Z59.738° ENE
11 mins2025-05-09 12:38:05.198Z227.326° WSW2025-05-09 12:43:05.198Z309.074° NW40.583°2025-05-09 12:49:05.198Z22.182° NNE
4 mins2025-05-09 14:30:05.198Z306.397° NW2025-05-09 14:32:05.198Z326.172° NNW13.181°2025-05-09 14:34:05.198Z345.664° N
9 mins2025-05-09 20:01:05.198Z0.469° NNE2025-05-09 20:05:05.198Z52.642° ENE25.879°2025-05-09 20:10:05.198Z105.994° ESE
10 mins2025-05-09 21:48:05.198Z317.532° NNW2025-05-09 21:53:05.198Z233.146° WSW38.823°2025-05-09 21:58:05.198Z173.497° S
|